ELY777 LKPR-LLBG

Flight info

Callsign ELY777
Flight time N/A
Altitude 33000
Route VOZ4H/12 VOZ DCT PISAM/N0470F370 DCT STO DCT ABETI DCT BABIT DCT OKLOP DCT NISVA DCT VIT DCT USALI/N0470F390 DCT RODIP UN131 PIBOM DCT BELGI UN131 KULAR UT39 TOMBI DCT IDAKU L35 PIKOG L609 ZUKKO
Aircraft B772/H-SDE2E3FGHIJ5LORVWXY/LB1D1

Departure

Time N/A
Airport Václav Havel Airport Prague (LKPR)

Arrival

Time 2026-05-06 19:42
Airport Ben Gurion International Airport (LLBG)
Time Latitude Longitude Altitude Speed Heading
2026-05-06 19:16 33.54527 33.09783 33234 ft 506 kts 152°
2026-05-06 19:16 33.51534 33.12062 33184 ft 511 kts 152°
2026-05-06 19:17 33.45524 33.16574 33084 ft 506 kts 153°
2026-05-06 19:17 33.39558 33.20972 33094 ft 503 kts 153°
2026-05-06 19:17 33.36584 33.23150 32948 ft 501 kts 153°
2026-05-06 19:18 33.33611 33.25324 32539 ft 499 kts 153°
2026-05-06 19:18 33.30652 33.27487 31920 ft 497 kts 153°
2026-05-06 19:18 33.27699 33.29644 31210 ft 498 kts 154°
2026-05-06 19:18 33.24745 33.31802 30595 ft 497 kts 154°
2026-05-06 19:19 33.21809 33.33947 30086 ft 493 kts 154°
2026-05-06 19:19 33.18901 33.36072 29556 ft 488 kts 154°
2026-05-06 19:19 33.16015 33.38178 29042 ft 482 kts 154°
2026-05-06 19:19 33.13170 33.40253 28517 ft 478 kts 154°
2026-05-06 19:20 33.10340 33.42313 27980 ft 474 kts 154°
2026-05-06 19:20 33.07533 33.44355 27454 ft 471 kts 153°
2026-05-06 19:20 33.06126 33.45377 27191 ft 469 kts 153°
2026-05-06 19:20 33.05105 33.46120 26995 ft 468 kts 153°
2026-05-06 19:21 33.02339 33.48129 26508 ft 463 kts 153°
2026-05-06 19:21 32.99614 33.50108 26033 ft 459 kts 153°
2026-05-06 19:21 32.97434 33.51689 25642 ft 457 kts 153°
2026-05-06 19:22 32.94797 33.53600 25153 ft 454 kts 153°
2026-05-06 19:23 32.92133 33.55604 24667 ft 454 kts 149°
2026-05-06 19:23 32.89664 33.57948 24186 ft 455 kts 142°
2026-05-06 19:23 32.87393 33.60576 23755 ft 455 kts 135°
2026-05-06 19:23 32.85340 33.63418 23256 ft 452 kts 133°
2026-05-06 19:24 32.83305 33.66266 22775 ft 448 kts 133°
2026-05-06 19:24 32.81298 33.69065 22346 ft 444 kts 134°
2026-05-06 19:24 32.79292 33.71850 21933 ft 439 kts 134°
2026-05-06 19:24 32.77316 33.74581 21505 ft 435 kts 134°
2026-05-06 19:25 32.75344 33.77296 21064 ft 432 kts 134°
2026-05-06 19:25 32.73388 33.79982 20619 ft 429 kts 134°
2026-05-06 19:25 32.71433 33.82666 20190 ft 426 kts 134°
2026-05-06 19:25 32.69505 33.85309 19814 ft 423 kts 134°
2026-05-06 19:26 32.67578 33.87948 19423 ft 420 kts 134°
2026-05-06 19:26 32.65675 33.90553 19032 ft 417 kts 134°
2026-05-06 19:26 32.63776 33.93152 18646 ft 415 kts 134°
2026-05-06 19:26 32.61913 33.95700 18250 ft 412 kts 134°
2026-05-06 19:27 32.60037 33.98264 17852 ft 409 kts 134°
2026-05-06 19:27 32.58184 34.00795 17448 ft 406 kts 134°
2026-05-06 19:27 32.56329 34.03326 17062 ft 404 kts 134°
2026-05-06 19:27 32.54497 34.05824 16669 ft 401 kts 134°
2026-05-06 19:28 32.52669 34.08316 16290 ft 399 kts 134°
2026-05-06 19:28 32.50861 34.10779 15926 ft 396 kts 134°
2026-05-06 19:28 32.49056 34.13235 15552 ft 394 kts 134°
2026-05-06 19:28 32.47257 34.15682 15189 ft 391 kts 134°
2026-05-06 19:29 32.45473 34.18106 14827 ft 389 kts 134°
2026-05-06 19:29 32.43713 34.20499 14485 ft 376 kts 134°
2026-05-06 19:29 32.42051 34.22763 13924 ft 354 kts 134°
2026-05-06 19:29 32.40453 34.24934 13540 ft 339 kts 134°
2026-05-06 19:30 32.39202 34.26635 13158 ft 322 kts 134°
2026-05-06 19:30 32.37758 34.28592 12522 ft 310 kts 134°
2026-05-06 19:30 32.37575 34.28840 12437 ft 309 kts 134°
2026-05-06 19:31 32.36398 34.30431 11880 ft 300 kts 133°
2026-05-06 19:32 32.35010 34.32306 10976 ft 302 kts 133°
2026-05-06 19:32 32.33642 34.34155 10275 ft 296 kts 133°
2026-05-06 19:32 32.32319 34.35943 9577 ft 290 kts 132°
2026-05-06 19:32 32.30988 34.37742 8828 ft 284 kts 132°
2026-05-06 19:33 32.29718 34.39457 8288 ft 273 kts 131°
2026-05-06 19:33 32.28508 34.41091 7941 ft 259 kts 131°
2026-05-06 19:33 32.27318 34.42698 7664 ft 263 kts 131°
2026-05-06 19:33 32.26081 34.44367 7365 ft 275 kts 131°
2026-05-06 19:34 32.24811 34.46080 7028 ft 278 kts 131°
2026-05-06 19:34 32.23541 34.47793 6725 ft 277 kts 131°
2026-05-06 19:34 32.22273 34.49503 6403 ft 276 kts 131°
2026-05-06 19:34 32.21003 34.51214 6079 ft 276 kts 131°
2026-05-06 19:35 32.19745 34.52910 5757 ft 274 kts 131°
2026-05-06 19:35 32.18488 34.54600 5437 ft 273 kts 131°
2026-05-06 19:35 32.17239 34.56280 5152 ft 272 kts 131°
2026-05-06 19:35 32.16049 34.57985 4794 ft 263 kts 123°
2026-05-06 19:36 32.15143 34.59776 4356 ft 247 kts 118°
2026-05-06 19:36 32.14317 34.61527 3948 ft 241 kts 118°
2026-05-06 19:36 32.13515 34.63231 3640 ft 232 kts 119°
2026-05-06 19:36 32.12732 34.64810 3704 ft 217 kts 120°
2026-05-06 19:37 32.11990 34.66259 3708 ft 201 kts 120°
2026-05-06 19:37 32.11284 34.67627 3808 ft 194 kts 120°
2026-05-06 19:37 32.10595 34.68963 3540 ft 192 kts 120°
2026-05-06 19:37 32.10140 34.69841 3371 ft 189 kts 119°
2026-05-06 19:38 32.09246 34.71569 3023 ft 181 kts 119°
2026-05-06 19:38 32.08598 34.72820 2784 ft 174 kts 119°
2026-05-06 19:38 32.07986 34.74002 2561 ft 164 kts 119°
2026-05-06 19:38 32.07403 34.75131 2352 ft 160 kts 119°
2026-05-06 19:39 32.06825 34.76249 2136 ft 159 kts 119°
2026-05-06 19:39 32.06259 34.77342 1970 ft 157 kts 119°
2026-05-06 19:39 32.05686 34.78449 1742 ft 158 kts 119°
2026-05-06 19:39 32.05119 34.79546 1518 ft 156 kts 119°
2026-05-06 19:40 32.04559 34.80629 1293 ft 155 kts 119°
2026-05-06 19:40 32.03998 34.81686 1129 ft 146 kts 121°
2026-05-06 19:40 32.03422 34.82748 858 ft 158 kts 120°
2026-05-06 19:40 32.02856 34.83867 634 ft 160 kts 118°
2026-05-06 19:41 32.02296 34.84979 393 ft 162 kts 120°
2026-05-06 19:41 32.01726 34.86075 215 ft 154 kts 120°
2026-05-06 19:41 32.01199 34.87101 119 ft 135 kts 122°
2026-05-06 19:41 32.00785 34.87909 120 ft 93 kts 121°
2026-05-06 19:42 32.00523 34.88411 123 ft 47 kts 122°
2026-05-06 19:42 32.00362 34.88612 122 ft 30 kts 146°
2026-05-06 19:42 32.00186 34.88700 120 ft 20 kts 168°
2026-05-06 19:42 32.00115 34.88612 122 ft 19 kts 289°
2026-05-06 19:43 32.00195 34.88455 121 ft 23 kts 302°
2026-05-06 19:43 32.00279 34.88294 123 ft 23 kts 297°
2026-05-06 19:43 32.00359 34.88131 120 ft 23 kts 299°
2026-05-06 19:43 32.00438 34.87976 120 ft 19 kts 285°
2026-05-06 19:44 32.00367 34.87862 121 ft 19 kts 209°
2026-05-06 19:44 32.00253 34.87781 121 ft 19 kts 211°
2026-05-06 19:44 32.00161 34.87759 119 ft 9 kts 131°
2026-05-06 19:44 32.00140 34.87799 120 ft 0 kts 121°